Content
SEND FEEDBACK

Daily
Averages
Monthly
Summary
United States of America

TROUT DALE, VIRGINIA


Home > North America > United States > Virginia
Elevation: 310 feet     Latitude: 36 42N     Longitude: 081 26W

WEATHER
 
SELECT A DAY
Number of Records: 434,049;   Date Range: 4/23/95 - 9/21/14
 
SHARE

PRINT THIS DATA

[ ← Previous Day ]
WEATHER ALMANAC - MARCH 14, 2014
[ Next Day → ]
[ °C ]   °F
Weather ElementAverageHighLow
Temperature40.8 °F57.9 °F (3:35 pm)24.6 °F (5:35 am)
Dewpoint13.3 °F22.8 °F (6:55 pm)6.3 °F (12:35 am)
Humidity34.5 %55 % (6:55 am)21 % (11:35 am)
Barometer30.13 in30.22 in (8:15 am)30.01 in (5:35 pm)
Wind Speed9.7 mph18.4 mph (1:15 pm)
Wind Gust24.2 mph (11:55 am)
Weather ElementAverage
Visibility10 mi
Wind DirectionWSW (240.8 °)

Weather ElementTotal
Precipitation---
Heating Degree Days23.8 (Base 65)
Averaged from 71 records on March 14, 2014
WEATHER CONDITIONS BREAKOUT
WIND DIRECTION BREAKOUT
WEATHER BY HOUR - MARCH 14, 2014
[ °C ]   °F
Local TimeTemperatureDewpointHumidityBarometerVisibilityWind DirectionWind SpeedGust SpeedPrecipitationEventsConditions
12:35 AM25.9 °F6.3 °F43 %30.16 in10.0 miWest (260°)10.4 mphClear
12:55 AM25.9 °F6.4 °F44 %30.16 in10.0 miWest (260°)9.2 mphClear
1:15 AM25.7 °F7.2 °F45 %30.16 in10.0 miWest (260°)11.5 mphClear
1:35 AM25.7 °F7.5 °F46 %30.16 in10.0 miWest (270°)10.4 mphClear
1:55 AM25.9 °F7.3 °F46 %30.17 in10.0 miWest (260°)9.2 mphClear
2:15 AM26.2 °F7.3 °F45 %30.17 in10.0 miWest (260°)11.5 mphClear
2:35 AM26.6 °F7.3 °F44 %30.18 in10.0 miWSW (250°)11.5 mphClear
2:55 AM26.6 °F7.0 °F43 %30.18 in10.0 miWSW (250°)13.8 mphClear
3:15 AM26.4 °F7.2 °F44 %30.18 in10.0 miWest (260°)15.0 mphClear
3:35 AM26.4 °F7.3 °F45 %30.19 in10.0 miWest (270°)10.4 mphClear
3:55 AM25.9 °F7.2 °F45 %30.19 in10.0 miWest (270°)9.2 mphClear
4:15 AM25.5 °F7.7 °F47 %30.19 in10.0 miWest (270°)10.4 mphClear
4:35 AM24.8 °F9.0 °F51 %30.21 in10.0 miWest (260°)10.4 mphClear
4:55 AM24.8 °F9.1 °F51 %30.21 in10.0 miWest (260°)11.5 mphClear
5:15 AM25.3 °F8.8 °F50 %30.21 in10.0 miWest (260°)10.4 mphClear
5:35 AM24.6 °F9.5 °F53 %30.21 in10.0 miWest (260°)9.2 mphClear
5:55 AM24.8 °F9.5 °F52 %30.21 in10.0 miWest (270°)9.2 mphClear
6:15 AM25.5 °F8.6 °F49 %30.20 in10.0 miWest (270°)9.2 mphClear
6:35 AM25.3 °F9.3 °F51 %30.20 in10.0 miWSW (250°)9.2 mphClear
6:55 AM24.6 °F10.4 °F55 %30.21 in10.0 miWest (270°)9.2 mphClear
7:15 AM25.7 °F9.3 °F50 %30.21 in10.0 miWest (270°)8.1 mphClear
7:35 AM26.2 °F8.6 °F47 %30.21 in10.0 miWest (270°)9.2 mphClear
7:55 AM25.7 °F10.2 °F52 %30.21 in10.0 miWest (260°)10.4 mphClear
8:15 AM26.8 °F11.1 °F52 %30.22 in10.0 miWSW (250°)10.4 mphClear
8:35 AM28.9 °F11.1 °F47 %30.22 in10.0 miWest (260°)10.4 mphClear
8:55 AM31.1 °F10.9 °F43 %30.21 in10.0 miWest (260°)10.4 mphClear
9:15 AM33.3 °F10.0 °F38 %30.21 in10.0 miWest (260°)10.4 mphClear
9:35 AM36.1 °F9.9 °F34 %30.22 in10.0 miWest (260°)11.5 mphClear
9:55 AM37.6 °F9.1 °F31 %30.22 in10.0 miWest (260°)11.5 mphClear
10:15 AM39.4 °F9.0 °F29 %30.22 in10.0 miWSW (250°)11.5 mphClear
10:35 AM41.9 °F9.7 °F27 %30.22 in10.0 miWest (270°)15.0 mphClear
10:55 AM42.3 °F8.6 °F25 %30.21 in10.0 miWSW (250°)15.0 mph19.6 mphClear
11:15 AM43.7 °F7.7 °F23 %30.21 in10.0 miWSW (250°)12.7 mphClear
11:35 AM45.0 °F7.3 °F21 %30.21 in10.0 miWSW (250°)16.1 mph23.0 mphClear
11:55 AM46.6 °F11.8 °F25 %30.20 in10.0 miWest (260°)17.3 mph24.2 mphClear
12:15 PM47.7 °F12.9 °F25 %30.20 in10.0 miWest (260°)15.0 mph20.7 mphClear
12:35 PM49.6 °F14.4 °F24 %30.19 in10.0 miWest (260°)12.7 mph18.4 mphClear
12:55 PM50.4 °F15.6 °F25 %30.17 in10.0 miWest (260°)13.8 mph21.9 mphClear
1:15 PM51.6 °F16.2 °F25 %30.16 in10.0 miWest (270°)18.4 mph21.9 mphClear
1:35 PM52.2 °F16.2 °F24 %30.15 in10.0 miWest (270°)17.3 mph20.7 mphClear
1:55 PM52.9 °F17.1 °F24 %30.13 in10.0 miWest (270°)15.0 mph23.0 mphClear
2:15 PM54.5 °F18.1 °F24 %30.11 in10.0 miWest (280°)15.0 mph18.4 mphClear
2:35 PM54.1 °F18.5 °F25 %30.09 in10.0 miWest (270°)11.5 mph20.7 mphClear
2:55 PM54.9 °F19.0 °F25 %30.08 in10.0 miWest (270°)15.0 mphClear
3:15 PM57.4 °F20.8 °F24 %30.07 in10.0 miWest (270°)10.4 mphClear
3:35 PM57.9 °F20.3 °F23 %30.06 in10.0 miWest (280°)13.8 mph19.6 mphClear
3:55 PM57.0 °F20.5 °F24 %30.05 in10.0 miWest (260°)11.5 mph17.3 mphClear
4:15 PM55.8 °F20.5 °F25 %30.04 in10.0 miWest (260°)13.8 mph17.3 mphClear
4:35 PM55.6 °F20.5 °F26 %30.03 in10.0 miWest (280°)13.8 mphClear
4:55 PM55.4 °F21.7 °F27 %30.03 in10.0 miWSW (240°)6.9 mph10.4 mphClear
5:15 PM55.8 °F20.7 °F26 %30.02 in10.0 miWSW (240°)8.1 mphClear
5:35 PM54.9 °F21.6 °F27 %30.01 in10.0 miWest (280°)8.1 mphClear
5:55 PM55.0 °F22.1 °F28 %30.02 in10.0 miWest (260°)5.8 mphClear
6:15 PM54.7 °F21.9 °F28 %30.02 in10.0 miWest (260°)6.9 mphClear
6:35 PM53.8 °F22.1 °F29 %30.02 in10.0 miWSW (240°)6.9 mphClear
6:55 PM53.4 °F22.8 °F30 %30.02 in10.0 miSW (230°)5.8 mphClear
7:15 PM53.1 °F17.1 °F24 %30.02 in10.0 miSouth (190°)5.8 mphMostly Cloudy
7:35 PM52.2 °F14.5 °F22 %30.02 in10.0 miSSW (200°)8.1 mphScattered Clouds
7:55 PM51.4 °F14.4 °F23 %30.03 in10.0 miSSW (200°)3.5 mphScattered Clouds
8:15 PM50.7 °F14.9 °F24 %30.03 in10.0 miSW (220°)3.5 mphClear
8:35 PM50.5 °F14.5 °F24 %30.03 in10.0 miSW (230°)4.6 mphMostly Cloudy
8:55 PM50.2 °F14.9 °F25 %30.02 in10.0 miSouth (180°)5.8 mphMostly Cloudy
9:15 PM49.5 °F14.2 °F24 %30.03 in10.0 miSouth (190°)6.9 mphScattered Clouds
9:35 PM48.4 °F14.0 °F25 %30.04 in10.0 miSW (230°)3.5 mphClear
9:55 PM47.3 °F14.9 °F27 %30.03 in10.0 miWNW (290°)3.5 mphClear
10:15 PM45.9 °F15.3 °F29 %30.03 in10.0 miCalmMostly Cloudy
10:35 PM46.0 °F15.8 °F30 %30.03 in10.0 miWest (280°)3.5 mphMostly Cloudy
10:55 PM44.8 °F16.5 °F32 %30.03 in10.0 miWest (260°)4.6 mphOvercast
11:15 PM45.0 °F16.7 °F32 %30.03 in10.0 miCalmOvercast
11:35 PM42.3 °F17.6 °F37 %30.02 in10.0 miCalmOvercast
11:55 PM41.7 °F18.0 °F38 %30.02 in10.0 miCalmOvercast
Hourly data recorded from KMKJ, located miles away from Trout Dale, Virginia







STORIES FROM OUR PARTNERS